Address 0x187b2d576ba7ec2141c180a96edd0f202492f36b 3

Txn Hash Method
Block
From
To
Value [Txn Fee]
0x26fd4ed6850184af88af33e9e58bc4ceb44eab23f7fafec3f6d9fa3ae37fed37Transfer256828562023-02-01 6:39:341 min ago0x187b2d576ba7ec2141c180a96edd0f202492f36bOUT0x7717fe2397da2523ac6b789e2bc37350a4a7411a0.255 AVAX0.00052525
0xafce50c08715e9f28ed26192c34052d5878083c74be4c5f52ceca603962b0dc1Transfer256828112023-02-01 6:38:043 mins ago0x187b2d576ba7ec2141c180a96edd0f202492f36bOUT0xbb72cd8a9277cdbc2ae231135b52d873e9f7c97b0.995 AVAX0.00052525
0x50679b037b30cb0d8660afd0c29762d63ac8725aab8ce32fffdd80c929ef76a4Transfer256826432023-02-01 6:32:268 mins ago0x187b2d576ba7ec2141c180a96edd0f202492f36bOUT Benqi Finance: QI Token0 AVAX0.0014358525
0x45edf31a58a3c25d8a44c0f9a1d5ad306bee95dba0905629cfdb48ed0378ed86Transfer256823082023-02-01 6:21:1619 mins ago0x187b2d576ba7ec2141c180a96edd0f202492f36bOUT0xbb72cd8a9277cdbc2ae231135b52d873e9f7c97b0.495 AVAX0.00052525
0xfdd854ec6d45fb33429d3d4e6e3db1733aae4f00def00fa83835d30726fc0366Transfer256811322023-02-01 5:41:3759 mins ago0x187b2d576ba7ec2141c180a96edd0f202492f36bOUT0xaef935655b04bd893c07623d21a259539b3dad725.56843393 AVAX0.00052525
0x81a3e1eb559d7fd42db508def72233c6ae6c760728c4c13b2ff471a5113aa480Transfer256810992023-02-01 5:40:311 hr ago0x187b2d576ba7ec2141c180a96edd0f202492f36bOUT0x193801bcd6d20d741deefc2e0d18f7eff0c033ef1.695 AVAX0.00052525
0xca6ff2585ed6c3ea66450bb2a6afb428ed40513d24eca9feb5f0f9dd1c96cfd3Transfer256802042023-02-01 5:10:361 hr 30 mins ago0x187b2d576ba7ec2141c180a96edd0f202492f36bOUT0x85b12b2c1cd68571d2665c45894f39cda8669f810.995 AVAX0.00052525
0xea6cf1a398d1d9f1763b4b5be5d5217975aa49814dd075377d35731e23e0d0acTransfer256801292023-02-01 5:08:061 hr 33 mins ago0x187b2d576ba7ec2141c180a96edd0f202492f36bOUT0xc511b18b6e1f0c13c36f9875e640aa145b40b3530.547 AVAX0.00052525
0xe868cb8d87cc8aadbc13f3c73d739f8d6fbe782d05669d97f3365cd55d444afdTransfer256798732023-02-01 4:59:271 hr 41 mins ago0x187b2d576ba7ec2141c180a96edd0f202492f36bOUT0xfd0434dde897da1aa92f137aa761c6b938f4560e11.995 AVAX0.00052525
0xab39305bcfddac9d28532ebdce4489cdc57f3f05f3afb26b520241b5d7ed780aTransfer256797972023-02-01 4:56:561 hr 44 mins ago0x187b2d576ba7ec2141c180a96edd0f202492f36bOUT0xfd0434dde897da1aa92f137aa761c6b938f4560e0.043 AVAX0.00052525
0x72901bd2849e9aaa4bb45b2c87fe323599b495a655002461237680e60ad75bbcTransfer256797082023-02-01 4:53:571 hr 47 mins ago0x187b2d576ba7ec2141c180a96edd0f202492f36bOUT0xa8d1622d7041b56f2d50fd382812c60ab0c0ac822.995 AVAX0.00052525
0x19efdadce8dc48313a6279bb00cd34337aed03b16d08562e654dd6a17dfd606eTransfer256789542023-02-01 4:28:442 hrs 12 mins ago0x7aad7840f119f3876ee3569e488c7c4135f695fa IN 0x187b2d576ba7ec2141c180a96edd0f202492f36b4,100 AVAX0.000787537.5
0xd23fcb1dbe768fae9dd2b27193e7ca4efbdad4f1ece765008403dffe8049cc5bTransfer256784832023-02-01 4:12:562 hrs 28 mins ago0x187b2d576ba7ec2141c180a96edd0f202492f36bOUT0xf4140088825df6381dbae33db3b5f42044eadcf6305.635 AVAX0.00052525
0xd220f25cee37c1e939ed0f7a71bc97002603a1e92852d71b8005ad5e8e347742Transfer256784232023-02-01 4:10:562 hrs 30 mins ago0x187b2d576ba7ec2141c180a96edd0f202492f36bOUT0xf4140088825df6381dbae33db3b5f42044eadcf64.995 AVAX0.00052525
0x7158f3335153f37a41a59d7e4df89b4d4ce2fb8ee0caaf80b0142eda0a628cfeTransfer256777892023-02-01 3:49:462 hrs 51 mins ago0x187b2d576ba7ec2141c180a96edd0f202492f36bOUT0x557973519400218268f08a4a823e092f91b15d1b18.195 AVAX0.00052525
0x6583d382dceb91198e2be4181d5850d10199073d6b3e37880569fb6e96b2b0e1Transfer256767732023-02-01 3:15:483 hrs 25 mins ago0x187b2d576ba7ec2141c180a96edd0f202492f36bOUT0x7ac208c48227de1372faacd26ffee9907012bec80.995 AVAX0.00052525
0x3c8d35fded9d513a1ffafc292e60a0d514c8e8c8dd5e51eb90396d8c582fae3cTransfer256765372023-02-01 3:07:533 hrs 33 mins ago0x187b2d576ba7ec2141c180a96edd0f202492f36bOUT0xe89929b2820c97783297b0475e3c529dcf659e550.895 AVAX0.00052525
0x0fd880e2ac21a96ecc27d7a5f0fb33d73eb124fa99ae68e88b22226cb61d3133Transfer256764612023-02-01 3:05:213 hrs 35 mins ago0x187b2d576ba7ec2141c180a96edd0f202492f36bOUT Avalanche Bridge: USDC.e0 AVAX0.00131137525
0xd46c8e18b177222a2ca3820a6993c1c358b10160507f7b9c22ccbb72883ed2f9Transfer256758192023-02-01 2:43:563 hrs 57 mins ago0x187b2d576ba7ec2141c180a96edd0f202492f36bOUT0xb5baa3ae23acf4bbf813414d09957e70166f3d8a2.098 AVAX0.00052525
0xbfaf702d3688f592ee6f6267cf8823f3b49579acad0e74e695d32369b3bcdc87Transfer256757082023-02-01 2:40:104 hrs 1 min ago0x187b2d576ba7ec2141c180a96edd0f202492f36bOUT0xd2aed87aa4753ac40be5408ea5bb2422fd89382618.995 AVAX0.00052525
0x94a46a4f001053394b6df449e3264dd10b1c731dda886565a36f3ddd42e362eaTransfer256756362023-02-01 2:37:474 hrs 3 mins ago0x187b2d576ba7ec2141c180a96edd0f202492f36bOUT0xd2aed87aa4753ac40be5408ea5bb2422fd8938260.995 AVAX0.00052525
0xc999c503e28fb2ea80ab857c3484c4533f68243932fa6921787578762fc44808Transfer256756212023-02-01 2:37:174 hrs 3 mins ago0x187b2d576ba7ec2141c180a96edd0f202492f36bOUT Avalanche Bridge: USDC.e0 AVAX0.00131137525
0x4763f6464d4fe20eedb0434f92dfcc60dfe01301ebd2e27b9dcd04ed77215af4Transfer256754152023-02-01 2:30:254 hrs 10 mins ago0x187b2d576ba7ec2141c180a96edd0f202492f36bOUT0x4d9e7a8eaca105b72835551f9119c7d32cd4157d3.89 AVAX0.00052525
0xda2dc0d534cbb1a70eeb4541e3f3d44720faa145e8361826db1d136e088f04d5Transfer256753072023-02-01 2:26:454 hrs 14 mins ago0x187b2d576ba7ec2141c180a96edd0f202492f36bOUT0x4d9e7a8eaca105b72835551f9119c7d32cd4157d0.095 AVAX0.00052525
0x11489755a9974110fe02e1b66d72ab1defc61064665776551ce1ab62268e4919Transfer256752432023-02-01 2:24:374 hrs 16 mins ago0x187b2d576ba7ec2141c180a96edd0f202492f36bOUT0x13dafa0e7ad888a91c663e1695bbddd372f542bd6.495 AVAX0.00052525
[ Download CSV Export 
Parent Txn Hash Block From To Value
Loading

Contract Name:
0

Compiler Version
0

Optimization Enabled:
0

Other Settings:
-NA-
Block Transaction Gas Used Reward
Age Block Fee Address BC Fee Address Voting Power Jailed Incoming
Block Uncle Number Difficulty Gas Used Reward
Loading
Make sure to use the "Vote Down" button for any spammy posts, and the "Vote Up" for interesting conversations.